Overview Statistics Trail Chart Weather Telemetry Raw packets
 

This is the latest recevied weather packets stored in our database for station/object W4SNA-3. If no packets are shown the sender has not sent any weather packets the latest 10 day(s).

<< 107 108 109 110 111 >>
Time Temp. Humidity Pressure Rain* Wind** Luminosity Snow
1787780000 23.89° C 80% 1017.2 hPa 0 mm - - -
1787779759 23.89° C 80% 1017.4 hPa 0 mm - - -
1787779397 24.44° C 80% 1017.4 hPa 0 mm - - -
1787779096 24.44° C 79% 1017.4 hPa 0 mm - - -
1787778797 24.44° C 80% 1017.5 hPa 0 mm - - -
1787778503 24.44° C 79% 1017.4 hPa 0 mm - - -
1787778199 24.44° C 79% 1017.3 hPa 0 mm - - -
1787777896 23.89° C 81% 1017.4 hPa 0 mm - - -
1787777598 23.89° C 81% 1017.5 hPa 0 mm - - -
1787777296 23.33° C 81% 1017.4 hPa 0 mm - - -
1787777002 23.33° C 80% 1017.5 hPa 0 mm - - -
1787776696 23.89° C 79% 1017.6 hPa 0 mm - - -
1787776402 23.89° C 79% 1017.8 hPa 0 mm - - -
1787776096 23.89° C 79% 1017.9 hPa 0 mm - - -
1787775797 23.89° C 78% 1018 hPa 0 mm - - -
1787775531 23.89° C 77% 1018 hPa 0 mm - - -
1787775226 24.44° C 77% 1018 hPa 0 mm - - -
1787774907 24.44° C 76% 1018.1 hPa 0 mm - - -
1787774597 24.44° C 76% 1018.2 hPa 0 mm - - -
1787774296 25° C 75% 1018.2 hPa 0 mm - - -
1787773997 24.44° C 80% 1018.2 hPa 0 mm - - -
1787773696 24.44° C 78% 1018.2 hPa 0 mm - - -
1787773397 24.44° C 77% 1018.1 hPa 0 mm - - -
1787773096 24.44° C 79% 1018.1 hPa 0 mm - - -
1787772802 24.44° C 78% 1018.1 hPa 0 mm - - -

* Rain latest hour (hover to see other rain measurements)
** Current wind speed in m/s (hover to see current wind gust speed)